Weather History for Eindhoven, Netherlands

Change the Weather History Date:

Tuesday, January 15, 2013

  Actual Average Record
Temperature  
Mean Temperature 28 °F -  
Max Temperature 29 °F 42 °F 50 °F (2008)
Min Temperature 26 °F 32 °F 23 °F (1997)
Degree Days  
Heating Degree Days 38    
Moisture  
Dew Point 27 °F    
Average Humidity 96    
Maximum Humidity 100    
Minimum Humidity 69    
Precipitation  
Precipitation 0.08 in - - ()
Sea Level Pressure  
Sea Level Pressure 29.69 in    
Wind  
Wind Speed 8 mph ()    
Max Wind Speed 15 mph    
Max Gust Speed -    
Visibility 2.4 miles    
Events Snow    
Averages and records for this station are not official NWS values.
T = Trace of Precipitation, MM = Missing Value Source: Averaged Metar Reports

Daily Weather History Graph

Daily Weather History Graph

Search for Another Location

Airport:

Trip Planner

Search our weather history database for the weather conditions in past years. The results will help you decide how hot, cold, wet, or windy it might be!

Date:

Astronomy

Jan. 15, 2013 Rise Set
Actual Time 8:37 AM CET 4:59 PM CET
Civil Twilight 7:58 AM CET 5:37 PM CET
Nautical Twilight 7:16 AM CET 6:19 PM CET
Astronomical Twilight 6:36 AM CET 6:59 PM CET
Moon 10:00 AM CET (1/15) 10:10 PM CET (1/15)
Length of Visible Light 9h 39m
Length of Day
8h 22m
Waxing Crescent, 17% of the Moon is Illuminated
Jan 15
Waxing Crescent
Jan 19
First Quarter
Jan 27
Full
Feb 3
Last Quarter
Feb 10
New

Hourly Weather History & Observations

Time (CET) Temp. Windchill Dew Point Humidity Pressure Visibility Wind Dir Wind Speed Gust Speed Precip Events Conditions
12:25 AM 30.2 °F 21.3 °F 21.2 °F 69% 29.71 in 6.2 mi SE 10.4 mph - N/A   Mostly Cloudy
12:36 AM 30.2 °F 20.8 °F 21.2 °F 69% 29.71 in 4.3 mi SE 11.5 mph - N/A Snow Light Snow
12:40 AM 30.2 °F 20.2 °F 21.2 °F 69% 29.71 in 2.5 mi SE 12.7 mph - N/A Snow Light Snow
12:45 AM 28.4 °F 18.0 °F 23.0 °F 80% 29.71 in - SE 12.7 mph - N/A Snow Light Snow
12:49 AM 28.4 °F 17.0 °F 24.8 °F 86% 29.71 in 0.9 mi SE 15.0 mph - N/A Snow Light Snow
12:55 AM 28.4 °F 17.5 °F 24.8 °F 86% 29.68 in 1.2 mi SE 13.8 mph - N/A Snow Snow
1:00 AM 28 °F - 26 °F 89% 29.70 in 1 mi SE 11.2 mph - - Snow Light Snow Showers
1:02 AM 28.4 °F 18.0 °F 26.6 °F 93% 29.68 in 0.8 mi SE 12.7 mph - N/A Snow Snow
1:06 AM 28.4 °F 18.0 °F 26.6 °F 93% 29.68 in 1.1 mi SE 12.7 mph - N/A Snow Snow
1:10 AM 28.4 °F 18.0 °F 26.6 °F 93% 29.68 in 0.9 mi SE 12.7 mph - N/A Snow Snow
1:25 AM 26.6 °F 16.2 °F 26.6 °F 100% 29.68 in 0.6 mi SE 11.5 mph - N/A Snow Snow
1:55 AM 26.6 °F 16.8 °F 26.6 °F 100% 29.65 in 0.5 mi ESE 10.4 mph - N/A Snow Snow
2:04 AM 26.6 °F 16.8 °F 26.6 °F 100% 29.65 in 1.0 mi ESE 10.4 mph - N/A Snow Snow
2:14 AM 26.6 °F 16.8 °F 26.6 °F 100% 29.65 in 0.9 mi ESE 10.4 mph - N/A Snow Snow
2:18 AM 26.6 °F 16.8 °F 26.6 °F 100% 29.65 in 1.0 mi ESE 10.4 mph - N/A Snow Snow
2:25 AM 26.6 °F 16.8 °F 26.6 °F 100% 29.65 in 1.0 mi ESE 10.4 mph - N/A Snow Snow
2:32 AM 26.6 °F 16.8 °F 26.6 °F 100% 29.65 in 1.1 mi ESE 10.4 mph - N/A Snow Snow
2:36 AM 26.6 °F 17.5 °F 26.6 °F 100% 29.65 in 1.1 mi ESE 9.2 mph - N/A Snow Snow
2:49 AM 26.6 °F 17.5 °F 26.6 °F 100% 29.65 in 1.2 mi ESE 9.2 mph - N/A Snow Light Snow
2:55 AM 26.6 °F 17.5 °F 26.6 °F 100% 29.65 in 1.5 mi ESE 9.2 mph - N/A Snow Light Snow
3:00 AM 26.6 °F 17.5 °F 26.6 °F 100% 29.65 in 1.6 mi ESE 9.2 mph - N/A Snow Light Snow
3:04 AM 26.6 °F 17.5 °F 26.6 °F 100% 29.65 in 1.5 mi ESE 9.2 mph - N/A Snow Light Snow
3:25 AM 26.6 °F 17.5 °F 26.6 °F 100% 29.65 in 1.1 mi ESE 9.2 mph - N/A Snow Snow
3:55 AM 26.6 °F 18.2 °F 26.6 °F 100% 29.62 in 1.5 mi ESE 8.1 mph - N/A Snow Light Snow
3:59 AM 26.6 °F 18.2 °F 26.6 °F 100% 29.62 in 1.6 mi ESE 8.1 mph - N/A Snow Light Snow
4:00 AM 27 °F - 27 °F 100% 29.65 in 2 mi ESE 8.9 mph - - Snow Light Snow
4:06 AM 26.6 °F 19.1 °F 26.6 °F 100% 29.62 in - ESE 6.9 mph - N/A Snow Light Snow
4:25 AM 28.4 °F 19.7 °F 28.4 °F 100% 29.62 in 3.7 mi ESE 9.2 mph - N/A   Mostly Cloudy
4:32 AM 28.4 °F 20.4 °F 26.6 °F 93% 29.62 in 4.3 mi SSE 8.1 mph - N/A   Overcast
4:33 AM 28.4 °F 21.2 °F 26.6 °F 93% 29.62 in 4.3 mi South 6.9 mph - N/A   Mostly Cloudy
4:40 AM 28.4 °F 21.2 °F 28.4 °F 100% 29.62 in 4.3 mi South 6.9 mph - N/A   Overcast
4:55 AM 28.4 °F 21.2 °F 28.4 °F 100% 29.62 in 4.3 mi SE 6.9 mph - N/A   Overcast
5:00 AM 28.4 °F 22.2 °F 28.4 °F 100% 29.62 in - ESE 5.8 mph - N/A   Overcast
5:13 AM 28.4 °F 22.2 °F 28.4 °F 100% 29.62 in 4.3 mi SSE 5.8 mph - N/A   Overcast
5:25 AM 28.4 °F 19.7 °F 28.4 °F 100% 29.62 in 4.3 mi East 9.2 mph - N/A   Overcast
5:34 AM 28.4 °F 21.2 °F 28.4 °F 100% 29.62 in 3.7 mi East 6.9 mph - N/A   Overcast
5:35 AM 28.4 °F 20.4 °F 26.6 °F 93% 29.62 in 3.7 mi East 8.1 mph - N/A   Overcast
5:46 AM 28.4 °F 19.7 °F 26.6 °F 93% 29.62 in 4.3 mi East 9.2 mph - N/A   Overcast
5:47 AM 28.4 °F 20.4 °F 26.6 °F 93% 29.62 in 3.7 mi East 8.1 mph - N/A   Mostly Cloudy
5:55 AM 28.4 °F 20.4 °F 26.6 °F 93% 29.62 in 3.7 mi East 8.1 mph - N/A   Overcast
5:56 AM 28.4 °F 19.1 °F 26.6 °F 93% 29.62 in 3.7 mi East 10.4 mph - N/A Snow Light Snow Grains
6:08 AM 28.4 °F 19.7 °F 26.6 °F 93% 29.62 in - East 9.2 mph - N/A   Overcast
6:09 AM 28.4 °F 20.4 °F 26.6 °F 93% 29.62 in 3.1 mi East 8.1 mph - N/A   Overcast
6:25 AM 28.4 °F 20.4 °F 26.6 °F 93% 29.62 in 3.1 mi East 8.1 mph - N/A Snow Light Snow Grains
6:32 AM 28.4 °F 20.4 °F 26.6 °F 93% 29.62 in 3.1 mi East 8.1 mph - N/A   Overcast
6:34 AM 28.4 °F 21.2 °F 26.6 °F 93% 29.62 in 3.1 mi East 6.9 mph - N/A   Overcast
6:37 AM 28.4 °F 21.2 °F 26.6 °F 93% 29.62 in 3.1 mi East 6.9 mph - N/A   Mostly Cloudy
6:41 AM 28.4 °F 21.2 °F 26.6 °F 93% 29.62 in 3.1 mi East 6.9 mph - N/A   Overcast
6:55 AM 28.4 °F 21.2 °F 26.6 °F 93% 29.62 in 3.1 mi East 6.9 mph - N/A Snow Light Snow
7:00 AM 28 °F - 27 °F 95% 29.64 in 3 mi East 6.7 mph - - Snow Light Snow Showers
7:01 AM 28.4 °F 21.2 °F 26.6 °F 93% 29.62 in - East 6.9 mph - N/A Snow Light Snow
7:15 AM 28.4 °F 21.2 °F 26.6 °F 93% 29.62 in - East 6.9 mph - N/A Snow Light Snow
7:25 AM 28.4 °F 21.2 °F 26.6 °F 93% 29.62 in 2.8 mi East 6.9 mph - N/A Snow Light Snow
7:32 AM 28.4 °F 21.2 °F 26.6 °F 93% 29.62 in 3.1 mi East 6.9 mph - N/A Snow Light Snow
7:41 AM 28.4 °F 21.2 °F 26.6 °F 93% 29.62 in - East 6.9 mph - N/A Snow Light Snow
7:46 AM 28.4 °F 21.2 °F 26.6 °F 93% 29.62 in 3.1 mi East 6.9 mph - N/A Snow Light Snow
7:55 AM 28.4 °F 22.2 °F 26.6 °F 93% 29.62 in 3.1 mi East 5.8 mph - N/A Snow Light Snow
8:01 AM 28.4 °F 21.2 °F 26.6 °F 93% 29.62 in 3.7 mi East 6.9 mph - N/A Snow Light Snow
8:16 AM 28.4 °F 21.2 °F 26.6 °F 93% 29.62 in 3.7 mi East 6.9 mph - N/A Snow Light Snow
8:25 AM 28.4 °F 21.2 °F 26.6 °F 93% 29.65 in 4.3 mi East 6.9 mph - N/A Snow Light Snow
8:36 AM 28.4 °F 22.2 °F 26.6 °F 93% 29.65 in 4.3 mi East 5.8 mph - N/A Snow Light Snow
8:55 AM 28.4 °F 22.2 °F 26.6 °F 93% 29.65 in 5.0 mi East 5.8 mph - N/A Snow Light Snow
9:13 AM 28.4 °F 21.2 °F 26.6 °F 93% 29.65 in 2.8 mi ENE 6.9 mph - N/A Snow Light Snow
9:25 AM 28.4 °F 21.2 °F 26.6 °F 93% 29.65 in - ENE 6.9 mph - N/A Snow Light Snow
9:26 AM 28.4 °F 21.2 °F 26.6 °F 93% 29.65 in 3.1 mi ENE 6.9 mph - N/A Snow Light Snow
9:32 AM 28.4 °F 21.2 °F 26.6 °F 93% 29.65 in - ENE 6.9 mph - N/A Snow Light Snow
9:41 AM 28.4 °F 21.2 °F 26.6 °F 93% 29.65 in - ENE 6.9 mph - N/A Snow Light Snow
9:42 AM 28.4 °F 21.2 °F 26.6 °F 93% 29.65 in - ENE 6.9 mph - N/A Snow Light Snow
9:50 AM 28.4 °F 21.2 °F 26.6 °F 93% 29.65 in 2.2 mi NE 6.9 mph - N/A Snow Light Snow
9:55 AM 28.4 °F 21.2 °F 26.6 °F 93% 29.68 in - NE 6.9 mph - N/A Snow Light Snow
9:59 AM 28.4 °F 21.2 °F 26.6 °F 93% 29.68 in - NE 6.9 mph - N/A Snow Light Snow
10:00 AM 28 °F - 27 °F 93% 29.68 in 2 mi NE 6.7 mph - - Snow Light Snow
10:03 AM 28.4 °F 21.2 °F 26.6 °F 93% 29.68 in - NE 6.9 mph - N/A Snow Light Snow
10:09 AM 28.4 °F 21.2 °F 26.6 °F 93% 29.68 in - ENE 6.9 mph - N/A Snow Light Snow
10:16 AM 28.4 °F 21.2 °F 26.6 °F 93% 29.68 in - ENE 6.9 mph - N/A Snow Light Snow
10:25 AM 28.4 °F 22.2 °F 26.6 °F 93% 29.68 in 1.7 mi ENE 5.8 mph - N/A Snow Light Snow
10:34 AM 28.4 °F 22.2 °F 26.6 °F 93% 29.68 in - NE 5.8 mph - N/A Snow Light Snow
10:35 AM 28.4 °F 22.2 °F 26.6 °F 93% 29.68 in - NE 5.8 mph - N/A Snow Light Snow
10:43 AM 28.4 °F 21.2 °F 26.6 °F 93% 29.68 in - NE 6.9 mph - N/A Snow Light Snow
10:47 AM 28.4 °F 21.2 °F 26.6 °F 93% 29.68 in - NE 6.9 mph - N/A Snow Light Snow
10:51 AM 28.4 °F 21.2 °F 26.6 °F 93% 29.68 in - NE 6.9 mph - N/A Snow Light Snow
10:55 AM 28.4 °F 21.2 °F 26.6 °F 93% 29.68 in - NE 6.9 mph - N/A Snow Light Snow
10:59 AM 28.4 °F 21.2 °F 28.4 °F 100% 29.68 in - NE 6.9 mph - N/A Snow Light Snow
11:05 AM 28.4 °F 22.2 °F 28.4 °F 100% 29.68 in 3.1 mi ENE 5.8 mph - N/A Snow Light Snow
11:06 AM 28.4 °F 21.2 °F 28.4 °F 100% 29.68 in - ENE 6.9 mph - N/A Snow Light Snow
11:09 AM 28.4 °F 21.2 °F 28.4 °F 100% 29.68 in 3.1 mi ENE 6.9 mph - N/A Snow Light Snow
11:11 AM 28.4 °F 21.2 °F 28.4 °F 100% 29.68 in 3.1 mi ENE 6.9 mph - N/A Snow Light Snow
11:15 AM 28.4 °F 22.2 °F 28.4 °F 100% 29.68 in 3.1 mi ENE 5.8 mph - N/A Snow Light Snow
11:25 AM 28.4 °F 22.2 °F 28.4 °F 100% 29.68 in 3.1 mi NE 5.8 mph - N/A   Overcast
11:33 AM 28.4 °F 22.2 °F 28.4 °F 100% 29.68 in 3.1 mi NE 5.8 mph - N/A Snow Light Snow
11:40 AM 28.4 °F 22.2 °F 28.4 °F 100% 29.68 in 3.1 mi ENE 5.8 mph - N/A Snow Light Snow Grains
11:45 AM 28.4 °F 22.2 °F 28.4 °F 100% 29.68 in 1.0 mi ENE 5.8 mph - N/A Snow Light Snow
11:49 AM 28.4 °F 22.2 °F 28.4 °F 100% 29.68 in 3.1 mi ENE 5.8 mph - N/A Snow Light Snow
11:55 AM 28.4 °F 22.2 °F 28.4 °F 100% 29.68 in 3.1 mi ENE 5.8 mph - N/A   Overcast
12:05 PM 28.4 °F 22.2 °F 28.4 °F 100% 29.68 in 3.7 mi ENE 5.8 mph - N/A   Overcast
12:11 PM 28.4 °F 22.2 °F 28.4 °F 100% 29.68 in 3.7 mi ENE 5.8 mph - N/A   Overcast
12:15 PM 28.4 °F 22.2 °F 28.4 °F 100% 29.68 in 4.3 mi ENE 5.8 mph - N/A   Overcast
12:19 PM 30.2 °F 24.3 °F 28.4 °F 93% 29.68 in - NE 5.8 mph - N/A   Overcast
12:25 PM 30.2 °F 24.3 °F 28.4 °F 93% 29.68 in 3.7 mi NE 5.8 mph - N/A   Overcast
12:37 PM 30.2 °F 24.3 °F 28.4 °F 93% 29.68 in 4.3 mi NE 5.8 mph - N/A   Overcast
12:50 PM 30.2 °F 23.4 °F 26.6 °F 86% 29.68 in - NE 6.9 mph - N/A Snow Light Snow
12:51 PM 30.2 °F 23.4 °F 26.6 °F 86% 29.68 in - NNE 6.9 mph - N/A Snow Light Snow
12:55 PM 30.2 °F 23.4 °F 26.6 °F 86% 29.68 in - NNE 6.9 mph - N/A Snow Light Snow
12:59 PM 28.4 °F 20.4 °F 26.6 °F 93% 29.68 in - NNE 8.1 mph - N/A Snow Light Snow
1:00 PM 29 °F - 27 °F 91% 29.70 in 2 mi NNE 8.9 mph - - Snow Light Snow Showers
1:13 PM 28.4 °F 20.4 °F 26.6 °F 93% 29.68 in - NNE 8.1 mph - N/A Snow Light Snow
1:17 PM 28.4 °F 19.7 °F 26.6 °F 93% 29.68 in 1.7 mi NNE 9.2 mph - N/A Snow Light Snow
1:25 PM 28.4 °F 19.7 °F 26.6 °F 93% 29.68 in 1.7 mi NNE 9.2 mph - N/A Snow Light Snow
1:55 PM 28.4 °F 20.4 °F 26.6 °F 93% 29.68 in 1.1 mi NNE 8.1 mph - N/A Snow Light Snow
2:04 PM 28.4 °F 19.7 °F 28.4 °F 100% 29.68 in 0.9 mi NE 9.2 mph - N/A Snow Light Snow
2:12 PM 28.4 °F 19.7 °F 26.6 °F 93% 29.68 in 1.0 mi NNE 9.2 mph - N/A Snow Light Snow
2:16 PM 28.4 °F 20.4 °F 28.4 °F 100% 29.68 in 0.9 mi NNE 8.1 mph - N/A Snow Light Snow
2:17 PM 28.4 °F 20.4 °F 26.6 °F 93% 29.68 in 1.0 mi NNE 8.1 mph - N/A Snow Light Snow
2:25 PM 28.4 °F 19.7 °F 26.6 °F 93% 29.68 in 1.2 mi NNE 9.2 mph - N/A Snow Light Snow
2:29 PM 28.4 °F 19.7 °F 26.6 °F 93% 29.68 in 1.6 mi North 9.2 mph - N/A Snow Light Snow
2:43 PM 28.4 °F 21.2 °F 28.4 °F 100% 29.68 in 1.7 mi North 6.9 mph - N/A Snow Light Snow Grains
2:55 PM 28.4 °F 19.7 °F 26.6 °F 93% 29.71 in 1.4 mi North 9.2 mph - N/A Snow Light Snow
3:09 PM 28.4 °F 21.2 °F 26.6 °F 93% 29.71 in 1.3 mi North 6.9 mph - N/A Snow Light Snow
3:13 PM 28.4 °F 21.2 °F 26.6 °F 93% 29.71 in 0.8 mi North 6.9 mph - N/A Snow Light Snow
3:17 PM 28.4 °F 20.4 °F 26.6 °F 93% 29.71 in 1.1 mi North 8.1 mph - N/A Snow Light Snow
3:25 PM 28.4 °F 20.4 °F 26.6 °F 93% 29.71 in 1.1 mi North 8.1 mph - N/A Snow Light Snow
3:33 PM 28.4 °F 20.4 °F 26.6 °F 93% 29.71 in 1.2 mi North 8.1 mph - N/A Snow Light Snow
3:34 PM 28.4 °F 21.2 °F 26.6 °F 93% 29.71 in 1.1 mi North 6.9 mph - N/A Snow Light Snow
3:41 PM 26.6 °F 19.1 °F 26.6 °F 100% 29.71 in 1.1 mi North 6.9 mph - N/A Snow Light Snow
3:49 PM 26.6 °F 19.1 °F 26.6 °F 100% 29.71 in 0.9 mi North 6.9 mph - N/A Snow Light Snow
3:55 PM 26.6 °F 18.2 °F 26.6 °F 100% 29.71 in 1.1 mi North 8.1 mph - N/A Snow Light Snow
3:58 PM 26.6 °F 18.2 °F 26.6 °F 100% 29.71 in 1.2 mi North 8.1 mph - N/A Snow Light Snow
4:00 PM 27 °F - 27 °F 100% 29.73 in 1 mi North 6.7 mph - - Snow Light Snow
4:13 PM 26.6 °F 19.1 °F 26.6 °F 100% 29.71 in 1.8 mi North 6.9 mph - N/A Snow Light Snow
4:25 PM 26.6 °F 18.2 °F 26.6 °F 100% 29.71 in 1.9 mi North 8.1 mph - N/A Snow Light Snow
4:45 PM 26.6 °F 18.2 °F 26.6 °F 100% 29.74 in 0.9 mi North 8.1 mph - N/A Snow Light Snow
4:46 PM 26.6 °F 18.2 °F 26.6 °F 100% 29.74 in 1.1 mi North 8.1 mph - N/A Snow Light Snow
4:51 PM 26.6 °F 19.1 °F 26.6 °F 100% 29.74 in 0.9 mi North 6.9 mph - N/A Snow Light Snow
4:55 PM 26.6 °F 19.1 °F 26.6 °F 100% 29.74 in 1.1 mi North 6.9 mph - N/A Snow Light Snow
4:56 PM 26.6 °F 19.1 °F 26.6 °F 100% 29.74 in 0.8 mi North 6.9 mph - N/A Snow Light Snow
5:08 PM 26.6 °F 19.1 °F 26.6 °F 100% 29.74 in 1.1 mi North 6.9 mph - N/A Snow Light Snow
5:15 PM 26.6 °F 19.1 °F 26.6 °F 100% 29.74 in 0.8 mi North 6.9 mph - N/A Snow Light Snow
5:19 PM 26.6 °F 18.2 °F 26.6 °F 100% 29.74 in 0.9 mi North 8.1 mph - N/A Snow Light Snow
5:25 PM 26.6 °F 19.1 °F 26.6 °F 100% 29.74 in 1.0 mi North 6.9 mph - N/A Snow Light Snow
5:33 PM 26.6 °F 19.1 °F 26.6 °F 100% 29.74 in 0.9 mi North 6.9 mph - N/A Snow Light Snow
5:34 PM 26.6 °F 19.1 °F 26.6 °F 100% 29.74 in 1.1 mi North 6.9 mph - N/A Snow Light Snow
5:51 PM 26.6 °F 18.2 °F 26.6 °F 100% 29.74 in 1.1 mi North 8.1 mph - N/A Snow Light Snow
5:55 PM 26.6 °F 19.1 °F 26.6 °F 100% 29.74 in 0.9 mi NNW 6.9 mph - N/A Snow Light Snow
5:59 PM 26.6 °F 19.1 °F 26.6 °F 100% 29.74 in 0.9 mi NNW 6.9 mph - N/A Snow Light Snow
6:00 PM 26.6 °F 20.0 °F 26.6 °F 100% 29.74 in 1.0 mi NNW 5.8 mph - N/A Snow Light Snow
6:15 PM 26.6 °F 17.5 °F 26.6 °F 100% 29.74 in 1.4 mi North 9.2 mph - N/A Snow Light Snow
6:25 PM 26.6 °F 17.5 °F 26.6 °F 100% 29.74 in 1.7 mi North 9.2 mph - N/A Snow Light Snow
6:33 PM 26.6 °F 18.2 °F 26.6 °F 100% 29.74 in - North 8.1 mph - N/A Snow Light Snow
6:37 PM 26.6 °F 18.2 °F 26.6 °F 100% 29.74 in - North 8.1 mph - N/A Snow Light Snow
6:41 PM 26.6 °F 18.2 °F 26.6 °F 100% 29.74 in 3.1 mi North 8.1 mph - N/A Snow Light Snow
6:45 PM 26.6 °F 18.2 °F 26.6 °F 100% 29.74 in - North 8.1 mph - N/A Snow Light Snow
6:55 PM 26.6 °F 18.2 °F 26.6 °F 100% 29.74 in 2.8 mi North 8.1 mph - N/A   Overcast
6:58 PM 26.6 °F 18.2 °F 26.6 °F 100% 29.74 in 3.1 mi North 8.1 mph - N/A   Mostly Cloudy
7:00 PM 26 °F - 26 °F 99% 29.77 in 3 mi North 8.9 mph - - Snow Light Snow
7:04 PM 26.6 °F 17.5 °F 26.6 °F 100% 29.74 in 3.1 mi North 9.2 mph - N/A   Mostly Cloudy
7:11 PM 26.6 °F 17.5 °F 26.6 °F 100% 29.74 in 3.1 mi North 9.2 mph - N/A   Overcast
7:25 PM 26.6 °F 17.5 °F 26.6 °F 100% 29.74 in 3.1 mi North 9.2 mph - N/A   Overcast
7:55 PM 26.6 °F 17.5 °F 26.6 °F 100% 29.77 in 3.1 mi North 9.2 mph - N/A   Mostly Cloudy
7:59 PM 26.6 °F 17.5 °F 26.6 °F 100% 29.77 in - North 9.2 mph - N/A Snow Light Snow Grains
8:06 PM 26.6 °F 17.5 °F 26.6 °F 100% 29.77 in 3.1 mi North 9.2 mph - N/A Snow Light Snow
8:20 PM 26.6 °F 16.8 °F 26.6 °F 100% 29.77 in 3.1 mi North 10.4 mph - N/A   Overcast
8:25 PM 26.6 °F 16.8 °F 26.6 °F 100% 29.77 in 3.1 mi NNE 10.4 mph - N/A   Overcast
8:55 PM 26.6 °F 18.2 °F 26.6 °F 100% 29.77 in 3.7 mi North 8.1 mph - N/A   Overcast
9:06 PM 26.6 °F 16.8 °F 26.6 °F 100% 29.77 in - NNE 10.4 mph - N/A Snow Light Snow
9:14 PM 26.6 °F 16.8 °F 26.6 °F 100% 29.77 in - North 10.4 mph - N/A Snow Light Snow
9:19 PM 26.6 °F 17.5 °F 26.6 °F 100% 29.77 in - North 9.2 mph - N/A Snow Light Snow
9:25 PM 26.6 °F 17.5 °F 26.6 °F 100% 29.77 in 3.1 mi North 9.2 mph - N/A Snow Light Snow
9:29 PM 26.6 °F 17.5 °F 26.6 °F 100% 29.77 in 1.8 mi North 9.2 mph - N/A Snow Light Snow
9:33 PM 26.6 °F 16.8 °F 26.6 °F 100% 29.77 in 3.1 mi North 10.4 mph - N/A Snow Light Snow
9:55 PM 26.6 °F 17.5 °F 26.6 °F 100% 29.77 in - North 9.2 mph - N/A Snow Light Snow
9:59 PM 26.6 °F 16.8 °F 26.6 °F 100% 29.77 in 3.1 mi North 10.4 mph - N/A Snow Light Snow
10:00 PM 27 °F - 26 °F 95% 29.79 in 4 mi North 8.9 mph - - Snow Light Snow Showers
10:10 PM 26.6 °F 17.5 °F 26.6 °F 100% 29.77 in 3.7 mi North 9.2 mph - N/A   Mostly Cloudy
10:25 PM 26.6 °F 16.8 °F 24.8 °F 93% 29.77 in 4.3 mi North 10.4 mph - N/A   Mostly Cloudy
10:30 PM 26.6 °F 16.8 °F 26.6 °F 100% 29.77 in 5.0 mi North 10.4 mph - N/A Snow Light Snow
10:41 PM 26.6 °F 16.8 °F 24.8 °F 93% 29.77 in 4.3 mi North 10.4 mph - N/A Snow Light Snow
10:45 PM 26.6 °F 17.5 °F 26.6 °F 100% 29.77 in 3.7 mi North 9.2 mph - N/A Snow Light Snow
10:49 PM 26.6 °F 18.2 °F 24.8 °F 93% 29.77 in 4.3 mi North 8.1 mph - N/A   Overcast
10:55 PM 26.6 °F 18.2 °F 24.8 °F 93% 29.77 in 3.7 mi North 8.1 mph - N/A   Overcast
11:25 PM 26.6 °F 18.2 °F 24.8 °F 93% 29.77 in 3.1 mi North 8.1 mph - N/A Snow Light Snow
11:29 PM 26.6 °F 18.2 °F 24.8 °F 93% 29.77 in 3.1 mi North 8.1 mph - N/A Snow Light Snow
11:34 PM 26.6 °F 18.2 °F 24.8 °F 93% 29.77 in - North 8.1 mph - N/A Snow Light Snow
11:41 PM 26.6 °F 18.2 °F 24.8 °F 93% 29.77 in 3.1 mi North 8.1 mph - N/A Snow Light Snow
11:55 PM 26.6 °F 18.2 °F 24.8 °F 93% 29.80 in 4.3 mi North 8.1 mph - N/A Snow Light Snow